| time (UTC) | temp F | wind direction | speed MPH | gust MPH | rain 1hr in | rain 24hr in | rain mn in | humidity % | barometer mb |
| 20260505211129 | 53 | 11 | 0.0 | 1.0 | 0.00 | 2.36 | 0.60 | 96 | 1012.9 |
| 20260505210128 | 53 | 11 | 0.0 | 1.0 | 0.00 | 2.36 | 0.60 | 96 | 1012.9 |
| 20260505205127 | 53 | 11 | 0.0 | 2.0 | 0.00 | 2.36 | 0.60 | 96 | 1012.9 |
| 20260505204135 | 53 | 11 | 0.0 | 1.0 | 0.00 | 2.36 | 0.60 | 96 | 1013.0 |
| 20260505203140 | 53 | 11 | 0.0 | 3.0 | 0.00 | 2.36 | 0.60 | 96 | 1012.9 |
| 20260505202122 | 53 | 11 | 0.0 | 1.0 | 0.00 | 2.36 | 0.60 | 96 | 1013.1 |
| 20260505201124 | 53 | 11 | 0.0 | 2.0 | 0.00 | 2.36 | 0.60 | 96 | 1013.1 |
| 20260505200132 | 53 | 11 | 0.0 | 3.0 | 0.00 | 2.36 | 0.60 | 95 | 1013.0 |
| 20260505195139 | 53 | 11 | 0.0 | 1.0 | 0.00 | 2.36 | 0.60 | 95 | 1013.0 |
| 20260505194137 | 53 | 11 | 0.0 | 2.0 | 0.00 | 2.36 | 0.60 | 95 | 1012.9 |
| 20260505193121 | 53 | 11 | 0.0 | 2.0 | 0.00 | 2.36 | 0.60 | 96 | 1012.8 |
| 20260505192132 | 53 | 11 | 1.0 | 3.0 | 0.00 | 2.36 | 0.60 | 95 | 1012.8 |
| 20260505191137 | 53 | 11 | 0.0 | 3.0 | 0.00 | 2.36 | 0.60 | 96 | 1012.8 |
| 20260505190122 | 53 | 11 | 0.0 | 2.0 | 0.00 | 2.36 | 0.60 | 95 | 1012.7 |
| 20260505185122 | 53 | 11 | 1.0 | 3.0 | 0.00 | 2.36 | 0.60 | 95 | 1012.5 |
| 20260505184131 | 53 | 11 | 0.0 | 2.0 | 0.00 | 2.36 | 0.60 | 96 | 1012.5 |
| 20260505183136 | 53 | 11 | 0.0 | 2.0 | 0.00 | 2.36 | 0.60 | 96 | 1012.5 |
| 20260505182201 | 53 | 11 | 0.0 | 2.0 | 0.00 | 2.36 | 0.60 | 96 | 1012.5 |
| 20260505181202 | 53 | 11 | 0.0 | 2.0 | 0.04 | 2.36 | 0.60 | 96 | 1012.5 |
| 20260505180128 | 53 | 11 | 1.0 | 3.0 | 0.04 | 2.36 | 0.60 | 95 | 1012.5 |
| 20260505175127 | 53 | 11 | 0.0 | 2.0 | 0.04 | 2.36 | 0.60 | 95 | 1012.5 |
| 20260505174129 | 53 | 11 | 0.0 | 3.0 | 0.04 | 2.36 | 0.60 | 95 | 1012.5 |
| 20260505173132 | 53 | 11 | 0.0 | 3.0 | 0.04 | 2.36 | 0.60 | 95 | 1012.5 |
| 20260505172136 | 53 | 11 | 1.0 | 3.0 | 0.04 | 2.36 | 0.60 | 95 | 1012.5 |
| 20260505171123 | 54 | 11 | 1.0 | 2.0 | 0.00 | 2.32 | 0.59 | 95 | 1012.5 |
| 20260505170150 | 54 | 11 | 0.0 | 1.0 | 0.00 | 2.32 | 0.59 | 95 | 1012.7 |
| 20260505165154 | 54 | 11 | 0.0 | 3.0 | 0.00 | 2.32 | 0.59 | 95 | 1012.7 |
| 20260505164140 | 54 | 11 | 1.0 | 2.0 | 0.00 | 2.32 | 0.59 | 95 | 1012.8 |
| 20260505163128 | 54 | 14 | 1.0 | 4.0 | 0.00 | 2.32 | 0.59 | 95 | 1012.8 |
| 20260505162129 | 54 | 19 | 1.0 | 4.0 | 0.00 | 2.32 | 0.59 | 95 | 1012.8 |
| 20260505161130 | 54 | 9 | 0.0 | 4.0 | 0.00 | 2.32 | 0.59 | 94 | 1012.8 |
| 20260505160135 | 54 | 26 | 1.0 | 6.0 | 0.00 | 2.32 | 0.59 | 94 | 1012.8 |
| 20260505153127 | 54 | 28 | 0.0 | 1.0 | 0.00 | 2.32 | 0.59 | 94 | 1013.1 |
| 20260505152133 | 54 | 28 | 1.0 | 3.0 | 0.00 | 2.32 | 0.59 | 94 | 1013.0 |
| 20260505151140 | 54 | 28 | 0.0 | 2.0 | 0.00 | 2.32 | 0.59 | 94 | 1013.1 |
| 20260505150141 | 54 | 28 | 0.0 | 2.0 | 0.00 | 2.32 | 0.59 | 94 | 1013.0 |
| 20260505140138 | 54 | 28 | 1.0 | 6.0 | 0.00 | 2.32 | 0.59 | 95 | 1013.1 |
| 20260505130200 | 53 | 5 | 1.0 | 4.0 | 0.00 | 2.28 | 0.58 | 94 | 1013.5 |
| 20260505124148 | 54 | 360 | 1.0 | 3.0 | 0.04 | 2.28 | 0.58 | 93 | 1013.7 |
| 20260505123133 | 54 | 105 | 0.0 | 3.0 | 0.04 | 2.28 | 0.58 | 93 | 1013.7 |
| 20260505122143 | 54 | 37 | 0.0 | 5.0 | 0.04 | 2.28 | 0.58 | 93 | 1013.5 |
| 20260505121127 | 54 | 22 | 1.0 | 5.0 | 0.04 | 2.28 | 0.58 | 93 | 1013.5 |
| 20260505120132 | 54 | 44 | 1.0 | 5.0 | 0.04 | 2.28 | 0.58 | 93 | 1013.5 |
| 20260505115139 | 54 | 28 | 1.0 | 6.0 | 0.00 | 2.24 | 0.57 | 93 | 1013.7 |
| 20260505114128 | 54 | 36 | 1.0 | 4.0 | 0.00 | 2.24 | 0.57 | 93 | 1013.8 |
| 20260505113134 | 54 | 24 | 1.0 | 5.0 | 0.04 | 2.24 | 0.57 | 92 | 1013.7 |
| 20260505112158 | 54 | 45 | 1.0 | 5.0 | 0.04 | 2.24 | 0.57 | 92 | 1013.7 |
| 20260505111123 | 54 | 345 | 2.0 | 5.0 | 0.04 | 2.24 | 0.57 | 91 | 1013.8 |
| 20260505110149 | 54 | 360 | 1.0 | 8.0 | 0.04 | 2.24 | 0.57 | 90 | 1013.8 |
| 20260505102148 | 55 | 33 | 2.0 | 5.0 | 0.00 | 2.20 | 0.56 | 91 | 1013.9 |
| 20260505101136 | 54 | 22 | 2.0 | 8.0 | 0.04 | 2.20 | 0.56 | 91 | 1013.9 |
| 20260505100141 | 54 | 49 | 3.0 | 6.0 | 0.08 | 2.20 | 0.56 | 91 | 1014.0 |
| 20260505095128 | 54 | 109 | 1.0 | 5.0 | 0.12 | 2.20 | 0.56 | 92 | 1014.0 |
| 20260505094133 | 54 | 26 | 2.0 | 6.0 | 0.20 | 2.20 | 0.56 | 91 | 1014.1 |
| 20260505093123 | 54 | 43 | 3.0 | 8.0 | 0.24 | 2.20 | 0.56 | 90 | 1014.0 |
| 20260505092127 | 54 | 5 | 2.0 | 9.0 | 0.24 | 2.20 | 0.56 | 91 | 1014.0 |
| 20260505091133 | 54 | 18 | 1.0 | 6.0 | 0.24 | 2.17 | 0.55 | 92 | 1014.0 |
| 20260505090158 | 54 | 46 | 1.0 | 6.0 | 0.24 | 2.13 | 0.54 | 93 | 1014.0 |
| 20260505085124 | 54 | 347 | 2.0 | 6.0 | 0.20 | 2.09 | 0.53 | 93 | 1013.9 |
| 20260505084130 | 53 | 20 | 1.0 | 5.0 | 0.12 | 2.01 | 0.51 | 94 | 1013.9 |
| 20260505083156 | 53 | 27 | 2.0 | 9.0 | 0.16 | 1.97 | 0.50 | 93 | 1013.9 |
| 20260505082142 | 53 | 38 | 2.0 | 6.0 | 0.20 | 1.97 | 0.50 | 94 | 1013.8 |
| 20260505081130 | 53 | 11 | 2.0 | 5.0 | 0.20 | 1.93 | 0.49 | 94 | 1013.7 |
| 20260505080137 | 53 | 34 | 2.0 | 9.0 | 0.24 | 1.89 | 0.48 | 94 | 1013.7 |
| 20260505075141 | 53 | 33 | 3.0 | 9.0 | 0.31 | 1.89 | 0.48 | 94 | 1013.6 |
| 20260505074128 | 53 | 25 | 6.0 | 10.0 | 0.39 | 1.89 | 0.48 | 94 | 1013.7 |
| 20260505073137 | 53 | 355 | 2.0 | 6.0 | 0.43 | 1.81 | 0.46 | 94 | 1013.7 |
| 20260505072129 | 53 | 49 | 2.0 | 6.0 | 0.59 | 1.77 | 0.45 | 94 | 1013.5 |
| 20260505071153 | 53 | 11 | 3.0 | 9.0 | 0.71 | 1.73 | 0.44 | 94 | 1013.5 |
| 20260505070139 | 53 | 34 | 3.0 | 8.0 | 0.71 | 1.65 | 0.42 | 94 | 1013.5 |
| 20260505065124 | 53 | 67 | 1.0 | 6.0 | 0.71 | 1.54 | 0.39 | 94 | 1013.5 |
| 20260505064155 | 53 | 355 | 2.0 | 6.0 | 0.75 | 1.50 | 0.38 | 94 | 1013.4 |
| 20260505063136 | 53 | 234 | 1.0 | 6.0 | 0.67 | 1.34 | 0.34 | 94 | 1013.4 |
| 20260505062142 | 53 | 38 | 1.0 | 5.0 | 0.67 | 1.22 | 0.31 | 93 | 1013.4 |
| 20260505061127 | 53 | 115 | 1.0 | 11.0 | 0.55 | 1.02 | 0.26 | 93 | 1013.2 |
| 20260505060138 | 53 | 5 | 2.0 | 9.0 | 0.55 | 0.94 | 0.24 | 93 | 1013.3 |
| 20260505055124 | 53 | 34 | 1.0 | 5.0 | 0.47 | 0.83 | 0.21 | 93 | 1013.2 |
| 20260505054131 | 53 | 49 | 1.0 | 6.0 | 0.47 | 0.75 | 0.19 | 93 | 1013.3 |
| 20260505053136 | 53 | 18 | 0.0 | 4.0 | 0.47 | 0.67 | 0.17 | 92 | 1013.2 |
| 20260505052128 | 53 | 68 | 0.0 | 2.0 | 0.39 | 0.55 | 0.14 | 91 | 1013.1 |
| 20260505051134 | 53 | 68 | 0.0 | 5.0 | 0.31 | 0.47 | 0.12 | 89 | 1013.0 |
| 20260505050141 | 53 | 75 | 3.0 | 9.0 | 0.28 | 0.39 | 0.10 | 88 | 1012.9 |
| 20260505041130 | 54 | 244 | 1.0 | 2.0 | 0.16 | 0.16 | 0.04 | 83 | 1012.9 |
| 20260505040154 | 54 | 244 | 0.0 | 2.0 | 0.12 | 0.12 | 0.03 | 82 | 1012.8 |
| 20260505035143 | 55 | 244 | 1.0 | 3.0 | 0.08 | 0.08 | 0.02 | 81 | 1012.9 |
| 20260505034128 | 55 | 245 | 0.0 | 5.0 | 0.04 | 0.04 | 0.01 | 79 | 1012.9 |
| 20260505033135 | 56 | 70 | 2.0 | 3.0 | 0.00 | 0.00 | 0.00 | 78 | 1012.9 |
| 20260505032139 | 57 | 235 | 0.0 | 4.0 | 0.00 | 0.00 | 0.00 | 72 | 1012.9 |
| 20260505031130 | 57 | 257 | 2.0 | 4.0 | 0.00 | 0.00 | 0.00 | 70 | 1012.8 |
| 20260505030136 | 57 | 350 | 0.0 | 2.0 | 0.00 | 0.00 | 0.00 | 68 | 1012.8 |
| 20260505025203 | 57 | 345 | 0.0 | 1.0 | 0.00 | 0.00 | 0.00 | 70 | 1012.9 |
| 20260505024142 | 57 | 345 | 0.0 | 1.0 | 0.00 | 0.00 | 0.00 | 69 | 1013.0 |
| 20260505023138 | 57 | 348 | 0.0 | 3.0 | 0.00 | 0.00 | 0.00 | 66 | 1013.2 |
| 20260505022146 | 58 | 271 | 0.0 | 1.0 | 0.00 | 0.00 | 0.00 | 69 | 1013.2 |
| 20260505021129 | 58 | 271 | 0.0 | 1.0 | 0.00 | 0.00 | 0.00 | 69 | 1013.4 |
| 20260505020137 | 58 | 271 | 0.0 | 1.0 | 0.00 | 0.00 | 0.00 | 66 | 1013.7 |
| 20260505015144 | 59 | 271 | 1.0 | 2.0 | 0.00 | 0.00 | 0.00 | 62 | 1013.5 |
| 20260505014133 | 59 | 285 | 1.0 | 3.0 | 0.00 | 0.00 | 0.00 | 62 | 1013.5 |
| 20260505013141 | 59 | 250 | 1.0 | 4.0 | 0.00 | 0.00 | 0.00 | 61 | 1013.8 |
| 20260505012127 | 58 | 242 | 1.0 | 3.0 | 0.00 | 0.00 | 0.00 | 62 | 1013.9 |
| 20260505011134 | 58 | 234 | 0.0 | 3.0 | 0.00 | 0.00 | 0.00 | 63 | 1014.1 |
| 20260505010124 | 58 | 233 | 0.0 | 1.0 | 0.00 | 0.00 | 0.00 | 64 | 1014.2 |
| 20260505005131 | 58 | 233 | 1.0 | 2.0 | 0.00 | 0.00 | 0.00 | 63 | 1014.4 |
| 20260505004134 | 58 | 220 | 0.0 | 1.0 | 0.00 | 0.00 | 0.00 | 69 | 1014.6 |
| 20260505003142 | 58 | 220 | 0.0 | 2.0 | 0.00 | 0.00 | 0.00 | 71 | 1014.7 |
| 20260505002152 | 58 | 220 | 0.0 | 2.0 | 0.00 | 0.00 | 0.00 | 70 | 1014.9 |
| 20260505001136 | 58 | 220 | 0.0 | 2.0 | 0.00 | 0.00 | 0.00 | 69 | 1015.1 |
| 20260505000141 | 58 | 220 | 0.0 | 1.0 | 0.00 | 0.00 | 0.00 | 69 | 1015.2 |
| 20260504235125 | 58 | 220 | 0.0 | 0.0 | 0.00 | 0.00 | 0.00 | 68 | 1015.3 |
| 20260504234135 | 59 | 220 | 0.0 | 0.0 | 0.00 | 0.00 | 0.00 | 68 | 1015.5 |
| 20260504233142 | 59 | 220 | 0.0 | 1.0 | 0.00 | 0.00 | 0.00 | 69 | 1015.5 |
| 20260504232127 | 59 | 220 | 0.0 | 0.0 | 0.00 | 0.00 | 0.00 | 68 | 1015.6 |
| 20260504231135 | 58 | 220 | 0.0 | 0.0 | 0.00 | 0.00 | 0.00 | 67 | 1015.8 |
| 20260504230125 | 58 | 220 | 0.0 | 0.0 | 0.00 | 0.00 | 0.00 | 67 | 1015.8 |
| 20260504225131 | 59 | 220 | 0.0 | 0.0 | 0.00 | 0.00 | 0.00 | 68 | 1015.8 |
| 20260504224137 | 59 | 220 | 0.0 | 1.0 | 0.00 | 0.00 | 0.00 | 67 | 1016.0 |
| 20260504223124 | 59 | 220 | 0.0 | 1.0 | 0.00 | 0.00 | 0.00 | 68 | 1016.1 |
| 20260504222155 | 59 | 220 | 0.0 | 0.0 | 0.00 | 0.00 | 0.00 | 69 | 1016.2 |
| 20260504221140 | 58 | 220 | 0.0 | 2.0 | 0.00 | 0.00 | 0.00 | 70 | 1016.2 |
| 20260504220125 | 59 | 220 | 0.0 | 2.0 | 0.00 | 0.00 | 0.00 | 70 | 1016.4 |
| 20260504215132 | 59 | 220 | 0.0 | 2.0 | 0.00 | 0.00 | 0.00 | 70 | 1016.4 |
| 20260504214140 | 59 | 220 | 1.0 | 3.0 | 0.00 | 0.00 | 0.00 | 70 | 1016.5 |
| 20260504213124 | 59 | 220 | 0.0 | 2.0 | 0.00 | 0.00 | 0.00 | 70 | 1016.6 |
| 20260504212130 | 59 | 220 | 0.0 | 3.0 | 0.00 | 0.00 | 0.00 | 70 | 1016.7 |